www.pogodaiklimat.ru

Погода и климат >> Архив погоды >> Гана >> Кофоридуа


ПОГОДА в Кофоридуа

  • Прогноз погоды в Кофоридуа
  • Монитор погоды в Кофоридуа

АРХИВ ПОГОДЫ в Кофоридуа

Время (UTC), дата Ветер
(напр.,м/с)
 
Видим.   Явления Облачность Т
(С)
Тd
(С)
f
(%)
Тe
(С)
Тes
(С)
Комфортность P
(гПа)
Po
(гПа)
Тmin
(С)
Tmax
(С)
R
(мм)
R24
(мм)
S
(см)
15 11.04 ЮЗ 1 16 км 6/6 360 м
[Cu Sc Ac trans]
+30.5 +25.8 76 +45 +51 опасность
перегрева
1009.3 990.5
18 11.04 ЮЗ 1 16 км 9/3 360 м
[Sc Cs]
+28.0 +25.3 85 +41 +41 опасность
перегрева
1009.5 990.5 +30.5
21 11.04 СЗ 1 16 км 8/8 360 м
[Sc]
+26.7 +24.7 89 +38 +38 очень
душно
1011.8 992.7
00 12.04 штиль 0 12 км 3/3 360 м
[Sc]
+25.4 +23.9 91 +35 +35 очень
душно
1010.9 991.8
03 12.04 штиль 0 12 км 9/9 360 м
[Sc]
+25.0 +23.6 92 +34 +34 очень
душно
1008.2 989.1
12 12.04 ЮЗ 2 16 км 8/6 480 м
[Cu med, cong Ac trans]
+32.9 +25.6 66 +48 +54 опасность
перегрева
1009.3 990.7
15 12.04 ЮЗ 2 17 км 8/3 480 м
[Cu med, cong Ac trans]
+33.0 +25.4 64 +47 +52 опасность
перегрева
1006.8 988.2
18 12.04 ЮЗ 1 17 км 6/4 360 м
[Sc Ac trans]
+29.9 +24.5 73 +42 +42 опасность
перегрева
1007.5 988.7 +33.2
21 12.04 Ю 1 13 км ясно +27.2 +23.3 79 +37 +37 очень
душно
1011.6 992.6
00 13.04 штиль 0 13 км ясно +25.5 +23.4 88 +34 +34 очень
душно
1011.1 992.0
03 13.04 штиль 0 13 км 4/4 360 м
[Sc]
+25.6 +24.1 91 +35 +35 очень
душно
1010.5 991.4
06 13.04 штиль 0 13 км 6/4 360 м
[Sc Ci sp]
+25.7 +22.6 83 +34 +34 очень
душно
1011.1 992.0 +24.4
09 13.04 СЗ 1 13 км 9/3 360 м
[Sc Ac trans]
+28.0 +23.8 78 +39 +43 очень
душно
1012.6 993.6
12 13.04 ЮЗ 1 16 км 8/0
[Ac trans]
+32.0 +23.3 60 +43 +56 опасность
перегрева
1011.0 992.3
21 13.04 Ю 1 13 км 8/6 360 м
[Sc Ci fib]
+27.6 +23.3 77 +37 +37 очень
душно
1011.5 992.5
00 14.04 СЗ 1 13 км 6/6 360 м
[Sc]
+26.8 +24.5 87 +38 +38 очень
душно
1012.0 992.9
03 14.04 штиль 0 13 км 4/4 360 м
[Sc]
+26.0 +24.4 91 +36 +36 очень
душно
1010.9 991.8
06 14.04 штиль 0 13 км 8/6 360 м
[Sc Ac trans]
+25.1 +23.7 92 +34 +34 очень
душно
1012.2 993.0 +24.5
09 14.04 З 1 16 км 9/4 360 м
[Cu Sc Ac trans]
+29.7 +24.7 75 +42 +47 опасность
перегрева
1013.1 994.2
21 14.04 ЮЗ 1 9000 м слаб. дождь {гроза} 9/6 330 м
[Sc Ac As]
+24.4 +22.6 90 +32 +32 очень
душно
1013.6 994.3
00 15.04 штиль 0 12 км {гроза, дождь} 9/9 330 м
[Sc]
+24.0 +22.5 91 +31 +31 очень
душно
1012.9 993.6 2
09 15.04 СЗ 1 14 км 9/6 360 м
[Cu Sc Ac trans]
+26.7 +23.3 82 +36 +39 очень
душно
1014.2 995.1
12 15.04 ЮЗ 1 16 км 8/6 480 м
[Cu med, cong Ac trans]
+32.6 +25.0 64 +46 +54 опасность
перегрева
1011.8 993.1
15 15.04 Ю 1 18 км 6/6 500 м
[Cu med, cong]
+34.2 +24.4 57 +47 +52 опасность
перегрева
1009.3 990.7
18 15.04 ЮВ 1 18 км 3/3 360 м
[Sc]
+31.5 +24.4 66 +44 +44 опасность
перегрева
1010.0 991.3 +34.5
21 15.04 штиль 0 14 км ясно +27.6 +24.1 81 +38 +38 очень
душно
1012.0 993.0
03 16.04 штиль 0 13 км 4/4 360 м
[Sc]
+25.0 +23.6 92 +34 +34 очень
душно
1012.0 992.8
09 16.04 В 1 14 км 4/4 480 м
[Cu med, cong]
+29.8 +24.5 73 +42 +50 опасность
перегрева
1013.8 994.9
12 16.04 ЮЗ 1 17 км 5/5 480 м
[Cu med, cong]
+33.5 +24.1 58 +45 +59 опасность
перегрева
1011.3 992.7
15 16.04 ЮЗ 2 17 км 8/8 500 м
[Cu med, cong]
+34.3 +23.6 54 +45 +48 опасность
перегрева
1009.3 990.7
18 16.04 Ю 1 17 км 9/3 360 м
[Cu Sc Cs]
+31.0 +22.7 61 +41 +41 опасность
перегрева
1009.8 991.0 +35.4
21 16.04 штиль 0 13 км 4/0
[Ac trans Ci fib]
+28.0 +23.9 78 +39 +39 очень
душно
1013.0 994.0
00 17.04 штиль 0 13 км 5/0
[Ci sp]
+26.4 +23.7 85 +36 +36 очень
душно
1013.1 994.0
03 17.04 штиль 0 13 км 4/1 360 м
[Sc Ci sp]
+25.4 +23.5 89 +34 +34 очень
душно
1010.9 991.8
06 17.04 штиль 0 13 км 9/9 360 м
[Sc]
+25.2 +23.5 90 +34 +34 очень
душно
1010.3 991.2 +24.4
12 17.04 Ю 1 16 км 6/6 480 м
[Cu med, cong]
+34.0 +24.2 57 +46 +57 опасность
перегрева
1010.9 992.3
15 17.04 ЮЗ 1 16 км 6/6 500 м
[Cu med, cong]
+35.1 +24.2 53 +47 +53 опасность
перегрева
1008.2 989.7
21 17.04 З 1 14 км 4/0
[Ci sp]
+28.6 +24.5 79 +41 +41 опасность
перегрева
1010.8 991.9
00 18.04 ЮЗ 1 14 км 8/0
[]
+27.4 +24.8 86 +39 +39 очень
душно
1012.7 993.7
03 18.04 штиль 0 14 км 6/5 360 м
[Sc Ci fib]
+26.5 +24.5 89 +37 +37 очень
душно
1010.2 991.1
06 18.04 штиль 0 13 км 5/1 360 м
[Sc Ci sp]
+25.5 +24.3 93 +35 +35 очень
душно
1010.6 991.5 +25.0
09 18.04 З 1 14 км 1/1 480 м
[Cu med, cong]
+30.2 +24.4 71 +42 +55 опасность
перегрева
1011.5 992.6
12 18.04 ЮВ 1 18 км 4/4 500 м
[Cu med, cong]
+35.0 +25.0 56 +48 +65 опасность
перегрева
1010.3 991.8

 

Местоположение метеостанции Кофоридуа (Гана): широта 6.08 долгота -0.25 высота над уровнем моря 167 м.

В архиве по умолчанию представлена погода в Кофоридуа за последнюю неделю. Архивные данные за месяц целиком и за предыдущие месяцы, начиная с января 2011 года, Вы можете получить, выбрав интересующий диапазон дат из раскрывающегося списка и нажав кнопку "Ввод!".


*Определитесь, кто Вы:
робот инопланетянин человек

Внимание! Время в таблицах - всемирное. Для получения местного времени необходимо прибавить поправку, которая равна 1 ч.

Смотрите также архив погоды в соседних городах и на ближайших метеорологических станциях:

Погода в Акюсе (Гана) (41 км)
Погода в Аккра (Гана) (54 км)
Погода в Тема (Гана) (58 км)
Погода в Аким Ода (Гана) (82 км)
Погода в Абетифи (Гана) (86 км)
Погода в Хо (Гана) (98 км)
Погода в Ада (Гана) (103 км)
Погода в Акатзи (Гана) (116 км)
Погода в Солтпонде (Гана) (133 км)
Погода в Кумаси (Гана) (165 км)

Пояснения к столбцам:

Ветер - указаны скорость ветра в м/с - средняя за 10 мин, порывы в срок и между сроками (в фигурных скобках) и направление, откуда дует ветер: С - северный, СВ - северо-восточный, В - восточный, ЮВ - юго-восточный, Ю - южный, ЮЗ - юго-западный, З - западный, СЗ - северо-западный.
Видимость - горизонтальная дальность видимости в метрах или километрах. При видимости от 1 до 10 км при отсутствии осадков обычно наблюдается дымка, при ухудшении видимости до 1 км и менее - туман. В сухую погоду видимость может ухудшаться дымом, пылью или мглою.
Явления - указаны атмосферные явления, наблюдавшиеся в срок или в последний час перед сроком; фигурными скобками обозначены явления, наблюдавшиеся между сроками (за 1-3 часа до срока); квадратными скобками обозначены град или гололедные отложения с указанием их диаметра в мм.
Облачность - указаны через наклонную черту общая и нижняя облачность в баллах и высота нижней границы облаков в метрах; квадратными скобками обозначены формы облаков: Ci - перистые, Cs - перисто-слоистые, Cc - перисто-кучевые, Ac - высококучевые, As - высокослоистые, Sc - слоисто-кучевые, Ns - слоисто-дождевые, Cu - кучевые, Cb - кучево-дождевые. Подробнее классификацию облаков см. в Атласе облаков (PDF).
T - Температура воздуха - температура, измеренная на высоте 2 м над землей.
Td - Температура точки росы - температура, при понижении до которой содержащийся в воздухе водяной пар достигнет насыщения.
f - Относительная влажность воздуха - влажноcть воздуха, измеренная на высоте 2 м над землей.
Te - Эффективная температура - температура, которую ощущает одетый по сезону человек в тени. Характеристика душности погоды. При расчете учитывается влияние влажности воздуха и скорости ветра на теплоощущения человека.
Tes - Эффективная температура на солнце - температура, которую ощущает человек, с поправкой на солнечный нагрев. Характеристика знойности погоды. Зависит от высоты солнца над горизонтом, облачности и скорости ветра. Ночью, в пасмурную погоду, а также при ветре 12 м/с и более поправка равна нулю.
P - Атмосферное давление - приведенное к уровню моря атмосферное давление.
Po - Атмосферное давление - измеренное на уровне метеостанции атмосферное давление.
Tmin - Минимальная температура - минимум температуры воздуха на высоте 2 м над землей.
Tmax - Максимальная температура - максимум температуры воздуха на высоте 2 м над землей.
R - Количество осадков - Количество выпавших осадков за период времени, мм. При наведении курсора мыши на число - период времени, за который выпало указанное количество осадков.
R24 - Количество осадков - Количество выпавших осадков за 24 часа, мм.
S - Снежный покров - Высота снежного покрова, см. При наведении курсора мыши на число - состояние снежного покрова и степень покрытия местности в баллах.